This demonstration page uses our WeatherBlox Daily Observations layout. Learn more.

Left ArrowRight Arrow

Hourly Observations for February 14, 2020

Temp ( °F °C ) Dew Point ( °F °C ) Humidity (%) Winds ( mph kmh ) Pressure ( in mb ) Visibility ( mi km ) Precip ( " mm )
12:56 am 00:56 Clear 10 -12.2 0 -17.8 63 63 S 8 13 30.45 1031 10 16 0.00 0.00
1:56 am 01:56 Clear 10 -12.2 1 -17.2 67 67 SSW 10 17 30.42 1030 10 16 0.00 0.00
2:56 am 02:56 Clear 10 -12.2 4 -15.6 76 76 S 10 17 30.40 1030 10 16 0.00 0.00
3:56 am 03:56 Clear 10 -12.2 4 -15.6 76 76 S 13 20 30.37 1029 10 16 0.00 0.00
4:56 am 04:56 Clear 10 -12.2 5 -15 80 80 S 16 26 30.35 1028 10 16 0.00 0.00
5:56 am 05:56 Clear 11 -11.7 6 -14.4 81 81 S 20 31 30.33 1027 10 16 0.00 0.00
6:56 am 06:56 Clear 11 -11.7 6 -14.4 81 81 S 16 26 30.33 1027 10 16 0.00 0.00
7:56 am 07:56 Sunny 12 -11.1 8 -13.3 84 84 S 17 28 30.32 1027 10 16 0.00 0.00
8:41 am 08:41 Mostly Cloudy 12 -11 9 -13 85 85 S 18 30 30.38 1029 10 16 0.00 0.00
8:52 am 08:52 Cloudy 14 -10 9 -13 79 79 S 16 26 30.36 1028 10 16 0.00 0.00
8:56 am 08:56 Cloudy 15 -9.4 9 -12.8 77 77 S 17 28 30.29 1026 10 16 0.00 0.00
9:48 am 09:48 Cloudy 18 -8 10 -12 73 73 S 20 31 30.33 1027 10 16 0.00 0.00
9:56 am 09:56 Cloudy 19 -7.2 12 -11.1 74 74 S 17 28 30.28 1025 10 16 0.00 0.00
10:44 am 10:44 Partly Cloudy 25 -4 14 -10 63 63 S 23 37 30.27 1025 10 16 0.00 0.00
10:56 am 10:56 Mostly Sunny 25 -3.9 14 -10 63 63 S 25 41 30.24 1024 10 16 0.00 0.00
11:11 am 11:11 Mostly Cloudy 27 -3 16 -9 64 64 S 24 39 30.25 1024 10 16 0.00 0.00
11:56 am 11:56 Cloudy 27 -2.8 16 -8.9 63 63 S 26 43 30.20 1023 10 16 0.00 0.00
12:56 pm 12:56 Cloudy 30 -1.1 17 -8.3 58 58 S 28 44 30.15 1021 10 16 0.00 0.00
1:36 pm 13:36 Partly Cloudy 34 1 18 -8 51 51 S 31 50 30.10 1019 10 16 0.00 0.00
1:56 pm 13:56 Sunny 34 1.1 17 -8.3 50 50 S 29 46 30.09 1019 10 16 0.00 0.00
2:56 pm 14:56 Sunny 37 2.8 19 -7.2 48 48 S 32 52 30.02 1017 10 16 0.00 0.00
3:56 pm 15:56 Sunny 38 3.3 20 -6.7 48 48 S 25 41 30.02 1017 10 16 0.00 0.00
4:56 pm 16:56 Sunny 37 2.8 21 -6.1 52 52 S 26 43 29.99 1016 10 16 0.00 0.00
5:56 pm 17:56 Sunny 35 1.7 21 -6.1 57 57 S 20 31 29.99 1016 10 16 0.00 0.00
6:56 pm 18:56 Clear 32 0 21 -6.1 64 64 S 22 35 29.99 1016 10 16 0.00 0.00
7:56 pm 19:56 Clear 31 -0.6 22 -5.6 69 69 S 21 33 30.01 1016 10 16 0.00 0.00
8:56 pm 20:56 Clear 28 -2.2 20 -6.7 72 72 S 21 33 30.00 1016 10 16 0.00 0.00
9:56 pm 21:56 Clear 27 -2.8 20 -6.7 75 75 S 18 30 29.98 1015 10 16 0.00 0.00
10:56 pm 22:56 Clear 26 -3.3 20 -6.7 78 78 S 13 20 29.98 1015 10 16 0.00 0.00
11:56 pm 23:56 Clear 26 -3.3 20 -6.7 78 78 S 14 22 29.95 1014 10 16 0.00 0.00

Powered by AerisWeather